Terminal Aerodrome Forecast
Issued by NWS

Home | Current Version | Previous Version | Text Only | Print | Product List | Glossary On
Versions: 1 2 3 4 5 6 7 8 9 10 11 12 13 14 15
000
FTUS43 KPAH 240700 AAA
TAFCGI
TAF AMD
KCGI 240717Z 2407/2506 00000KT P6SM BKN050
     FM241000 00000KT 4SM BR SCT040
     FM241400 VRB03KT P6SM SCT150
     FM250100 VRB02KT P6SM SCT250=

USA.gov is the U.S. government's official web portal to all federal, state and local government web resources and services.